Location: Archemont
(49.1579°N, 1.7598°E)
Time: 10:19:26
(UTC+00:00)

CZ-4C R/B - Pass Details

Date: 03 February 2023
Orbit: 456 x 612 km, 98.1° (Epoch: 28 March)

Event Time Altitude Azimuth Distance (km) Brightness Sun altitude
Rises 18:08:42 0° 15° (NNE) 2,722 6.6 -12.7°
Reaches altitude 10° 18:10:54 10° 17° (NNE) 1,796 5.7 -13.0°
Maximum altitude 18:14:46 74° 103° (ESE) 539 3.1 -13.6°
Drops below altitude 10° 18:18:23 10° 189° (S) 1,690 6.0 -14.2°
Sets 18:20:24 0° 191° (SSW) 2,544 7.0 -14.6°
